CW4403 Weather Reports


time (UTC)temp
C
wind
direction
speed
KPH
gust
KPH
rain 1hr
cm
rain 24hr
cm
rain mn
cm
humidity
%
barometer
mb
20260505040022 15 149 0.0 9.7 0.00 0.00 0.00 66 1010.0
20260505034522 16 109 0.0 9.7 0.00 0.00 0.00 63 1010.0
20260505033022 16 128 0.0 12.9 0.00 0.00 0.00 60 1010.0
20260505031520 16 136 0.0 11.3 0.00 0.00 0.00 60 1010.1
20260505030021 16 150 0.0 8.0 0.00 0.00 0.00 58 1010.1
20260505024522 16 176 1.6 12.9 0.00 0.00 0.00 58 1009.9
20260505023019 17 172 0.0 6.4 0.00 0.00 0.00 56 1010.1
20260505021523 17 132 0.0 0.0 0.00 0.00 0.00 56 1010.3
20260505020020 17 193 0.0 1.6 0.00 0.00 0.00 54 1010.3
20260505014518 17 148 0.0 12.9 0.00 0.00 0.00 54 1010.2
20260505013020 17 142 0.0 3.2 0.00 0.00 0.00 54 1010.2
20260505011526 18 151 0.0 1.6 0.00 0.00 0.00 51 1010.1
20260505010016 18 189 0.0 9.7 0.00 0.00 0.00 51 1009.8
20260505004530 18 194 0.0 1.6 0.00 0.00 0.00 51 1009.6
20260505003015 18 142 0.0 6.4 0.00 0.00 0.00 50 1009.5
20260505001515 18 148 0.0 0.0 0.00 0.00 0.00 49 1009.5
20260505000026 19 205 0.0 1.6 0.00 0.00 0.00 48 1009.5
20260504234514 20 202 0.0 4.8 0.00 0.00 0.00 47 1009.3
20260504233013 20 182 0.0 12.9 0.00 0.00 0.00 46 1009.4
20260504231513 20 184 3.2 14.5 0.00 0.00 0.00 45 1009.4
20260504230017 21 185 0.0 9.7 0.00 0.00 0.00 45 1009.3
20260504224510 21 185 0.0 8.0 0.00 0.00 0.00 43 1009.2
20260504223010 21 210 0.0 19.3 0.00 0.00 0.00 45 1009.3
20260504221515 21 281 0.0 16.1 0.00 0.00 0.00 43 1009.4
20260504220007 21 101 0.0 16.1 0.00 0.00 0.00 44 1009.4
20260504214511 22 157 0.0 14.5 0.00 0.00 0.00 42 1009.7
20260504213016 22 215 1.6 16.1 0.00 0.00 0.00 40 1009.6
20260504211511 22 197 1.6 17.7 0.00 0.00 0.00 40 1009.6
20260504210005 22 312 3.2 17.7 0.00 0.00 0.00 42 1009.6
20260504204502 22 199 4.8 19.3 0.00 0.00 0.00 43 1009.5
20260504203003 22 142 3.2 19.3 0.00 0.00 0.00 40 1009.6
20260504201559 22 155 4.8 16.1 0.00 0.00 0.00 40 1009.8
20260504200058 22 190 8.0 29.0 0.00 0.00 0.00 44 1009.9
20260504194604 22 286 6.4 16.1 0.00 0.00 0.00 43 1010.2
20260504193059 22 207 6.4 19.3 0.00 0.00 0.00 42 1010.1
20260504191550 21 287 1.6 22.5 0.00 0.00 0.00 40 1010.4
20260504184553 21 303 1.6 16.1 0.00 0.00 0.00 41 1010.7
20260504183043 21 180 4.8 17.7 0.00 0.00 0.00 43 1011.0
20260504181543 21 272 3.2 16.1 0.00 0.00 0.00 43 1011.3
20260504180040 21 211 8.0 20.9 0.00 0.00 0.00 44 1011.4
20260504174537 21 176 3.2 19.3 0.00 0.00 0.00 42 1011.8
20260504173045 21 188 0.0 19.3 0.00 0.00 0.00 41 1011.9
20260504171534 20 270 3.2 24.1 0.00 0.00 0.00 42 1012.0
20260504081516 6 121 0.0 0.0 0.00 0.00 0.00 82 1014.4
20260504050104 7 220 0.0 0.0 0.00 0.00 0.00 68 1014.4
20260504044604 6 221 0.0 1.6 0.00 0.00 0.00 70 1014.4
20260504043056 6 169 0.0 0.0 0.00 0.00 0.00 72 1014.2
20260504041554 6 179 0.0 3.2 0.00 0.00 0.00 72 1014.1